Location: Kellogg
(38.0159°N, 90.0546°W)
Time: 08:38:03
(UTC+00:00)

Altair - Pass Details

Date: 20 September 2024
Orbit: 1501 x 1682 km, 47.2° (Epoch: 07 October)

Event Time Altitude Azimuth Distance (km) Brightness Sun altitude
Rises 13:43:57 0° 301° (WNW) 4,936 9.6 21.9°
Reaches altitude 10° 13:47:10 10° 298° (WNW) 3,948 9.2 22.5°
Maximum altitude 13:57:07 62° 221° (SW) 1,841 8.2 24.4°
Drops below altitude 10° 14:06:51 10° 144° (SE) 3,866 10.7 26.2°
Sets 14:09:59 0° 141° (SE) 4,829 11.0 26.7°
